Weather History for Bolton Field, OH

Change the Weather History Date:

Monday, January 21, 2013

  Actual Average Record
Temperature  
Mean Temperature 26 °F -  
Max Temperature 23 °F 32 °F 51 °F (2006)
Min Temperature 9 °F 19 °F -5 °F (2011)
Degree Days  
Heating Degree Days 40    
Moisture  
Dew Point 3 °F    
Average Humidity 50    
Maximum Humidity 58    
Minimum Humidity 21    
Precipitation  
Precipitation 0.00 in - - ()
Sea Level Pressure  
Sea Level Pressure 30.10 in    
Wind  
Wind Speed 9 mph (West)    
Max Wind Speed 20 mph    
Max Gust Speed 29 mph    
Visibility 9 miles    
Events Snow    
Averages and records for this station are not official NWS values.
T = Trace of Precipitation, MM = Missing Value Source: NWS Daily Summary

Daily Weather History Graph

Daily Weather History Graph

Search for Another Location

Airport:

Trip Planner

Search our weather history database for the weather conditions in past years. The results will help you decide how hot, cold, wet, or windy it might be!

Date:

Astronomy

Jan. 21, 2013 Rise Set
Actual Time 7:49 AM EST 5:39 PM EST
Civil Twilight 7:19 AM EST 6:08 PM EST
Nautical Twilight 6:46 AM EST 6:41 PM EST
Astronomical Twilight 6:14 AM EST 7:13 PM EST
Moon 1:18 PM EST (1/21) 3:16 AM EST (1/21)
Length of Visible Light 10h 48m
Length of Day
9h 50m
Waxing Gibbous, 75% of the Moon is Illuminated
Jan 21
Waxing Gibbous
Jan 26
Full
Feb 3
Last Quarter
Feb 10
New
Feb 17
First Quarter

Hourly Weather History & Observations

Time (EST) Temp. Windchill Dew Point Humidity Pressure Visibility Wind Dir Wind Speed Gust Speed Precip Events Conditions
12:15 AM 23.0 °F 17.0 °F 8.2 °F 53% 30.14 in 10.0 mi NW 4.6 mph - N/A   Overcast
12:35 AM 23.0 °F - 7.5 °F 52% 30.13 in 10.0 mi North - - N/A   Overcast
12:55 AM 23.4 °F - 8.1 °F 52% 30.13 in 10.0 mi North - - N/A   Overcast
1:15 AM 23.5 °F - 7.7 °F 51% 30.12 in 10.0 mi North - - N/A   Overcast
1:35 AM 23.4 °F - 7.7 °F 51% 30.12 in 10.0 mi North - - N/A   Overcast
1:55 AM 23.4 °F - 7.9 °F 52% 30.12 in 10.0 mi North - - N/A   Overcast
2:15 AM 23.0 °F - 7.3 °F 51% 30.11 in 10.0 mi North - - N/A   Overcast
2:35 AM 23.0 °F 15.8 °F 6.8 °F 50% 30.11 in 10.0 mi WNW 5.8 mph - N/A   Overcast
2:55 AM 23.0 °F - 7.3 °F 51% 30.11 in 10.0 mi North - - N/A   Overcast
3:15 AM 23.0 °F - 6.4 °F 49% 30.10 in 10.0 mi North - - N/A   Overcast
3:35 AM 23.0 °F - 6.4 °F 49% 30.10 in 10.0 mi North - - N/A   Overcast
3:55 AM 23.0 °F - 6.3 °F 49% 30.09 in 10.0 mi North - - N/A   Overcast
4:15 AM 23.0 °F - 6.4 °F 49% 30.08 in 10.0 mi North - - N/A   Overcast
4:35 AM 23.0 °F 18.4 °F 6.6 °F 50% 30.08 in 10.0 mi WSW 3.5 mph - N/A   Overcast
4:55 AM 23.0 °F 15.8 °F 6.8 °F 50% 30.07 in 10.0 mi West 5.8 mph - N/A   Overcast
5:15 AM 23.0 °F 15.8 °F 6.4 °F 49% 30.07 in 10.0 mi West 5.8 mph - N/A   Overcast
5:55 AM 23.0 °F 14.7 °F 6.8 °F 50% 30.07 in 10.0 mi WSW 6.9 mph - N/A   Overcast
6:15 AM 23.0 °F 15.8 °F 7.7 °F 52% 30.06 in 10.0 mi WSW 5.8 mph - N/A   Overcast
6:35 AM 23.0 °F 13.1 °F 7.7 °F 52% 30.06 in 10.0 mi WSW 9.2 mph - N/A   Overcast
6:55 AM 23.0 °F 14.7 °F 8.2 °F 53% 30.06 in 10.0 mi SW 6.9 mph - N/A   Overcast
7:15 AM 23.0 °F 14.7 °F 8.6 °F 54% 30.05 in 10.0 mi SW 6.9 mph - N/A   Overcast
7:16 AM 23.0 °F 14.7 °F 8.6 °F 54% 30.05 in 10.0 mi SW 6.9 mph - N/A   Overcast
7:50 AM 23.0 °F 14.7 °F 6.8 °F 50% 30.04 in 10.0 mi WSW 6.9 mph - N/A   Overcast
8:25 AM 23.0 °F 14.7 °F -7.6 °F 26% 30.05 in 5.0 mi West 6.9 mph - N/A Snow Light Snow
8:50 AM 23.0 °F 11.1 °F -9.4 °F 24% 30.05 in 5.0 mi WSW 12.7 mph - N/A Snow Light Snow
9:50 AM 21.2 °F 8.9 °F 3.2 °F 46% 30.05 in 7.0 mi West 12.7 mph 19.6 mph N/A Snow Light Snow
10:18 AM 21.2 °F 8.9 °F 8.6 °F 58% 30.05 in 3.0 mi West 12.7 mph - N/A Snow Light Snow
10:50 AM 23.0 °F 11.1 °F 8.6 °F 54% 30.05 in 10.0 mi WSW 12.7 mph 19.6 mph N/A   Overcast
11:50 AM 42.8 °F 36.2 °F 5.0 °F 21% 30.04 in 7.0 mi West 12.7 mph 23.0 mph N/A   Unknown
1:45 PM 21.2 °F 6.0 °F 6.8 °F 54% 30.03 in 7.0 mi West 19.6 mph 28.8 mph N/A   Overcast
4:55 PM 17.6 °F 2.7 °F 1.4 °F 49% 30.08 in 10.0 mi WSW 16.1 mph 25.3 mph N/A   Mostly Cloudy
8:15 PM 12.4 °F -3.5 °F -0.6 °F 56% 30.13 in 10.0 mi WNW 15.0 mph 25.3 mph N/A   Scattered Clouds
8:35 PM 11.8 °F -4.2 °F -1.8 °F 54% 30.13 in 10.0 mi West 15.0 mph 21.9 mph N/A   Clear
8:55 PM 11.3 °F -4.9 °F -5.1 °F 48% 30.14 in 10.0 mi West 15.0 mph 23.0 mph N/A   Clear
9:15 PM 11.1 °F -5.7 °F -5.6 °F 47% 30.15 in 10.0 mi West 16.1 mph 24.2 mph N/A   Clear
9:35 PM 10.9 °F -4.7 °F -3.3 °F 53% 30.16 in 10.0 mi West 13.8 mph 21.9 mph N/A   Scattered Clouds
9:55 PM 10.4 °F -4.8 °F -3.1 °F 55% 30.16 in 10.0 mi West 12.7 mph 21.9 mph N/A   Scattered Clouds
10:15 PM 10.8 °F -1.1 °F -3.1 °F 54% 30.17 in 10.0 mi West 8.1 mph 19.6 mph N/A   Mostly Cloudy
10:35 PM 10.4 °F -5.4 °F -3.1 °F 55% 30.17 in 10.0 mi West 13.8 mph 23.0 mph N/A   Mostly Cloudy
10:55 PM 10.4 °F -2.4 °F -2.7 °F 55% 30.18 in 10.0 mi West 9.2 mph 21.9 mph N/A   Overcast
11:15 PM 9.9 °F -5.5 °F -3.5 °F 55% 30.18 in 10.0 mi West 12.7 mph 18.4 mph N/A   Mostly Cloudy
11:35 PM 9.5 °F -5.2 °F -3.6 °F 55% 30.18 in 10.0 mi West 11.5 mph 19.6 mph N/A   Scattered Clouds
11:55 PM 9.3 °F -6.1 °F -4.0 °F 55% 30.18 in 10.0 mi West 12.7 mph 20.7 mph N/A   Scattered Clouds